Terminal Aerodrome Forecast
Issued by NWS

Home | Current Version | Previous Version | Text Only | Print | Product List | Glossary On
Versions: 1 2 3 4 5 6 7 8 9 10 11 12 13 14 15
063
FTPA31 PHFO 092343
TAFHMK
TAF
PHMK 092343Z 1000/1024 02008KT P6SM FEW030 SCT050
     FM100400 01005KT P6SM SKC
     FM101900 03009KT P6SM FEW030 SCT050
      AMD NOT SKED=

USA.gov is the U.S. government's official web portal to all federal, state and local government web resources and services.